Location: Montreal
(45.5087°N, 73.5540°W)
Time: 11:57:54
(UTC-05:00)

CUTE-I - Visible Passes

Search period start: 11 December 2018 00:00
Search period end: 21 December 2018 00:00
Orbit: 811 x 825 km, 98.7° (Epoch: 10 December)

Date Brightness Start Highest point End Pass type
(mag) Time Alt. Az. Time Alt. Az. Time Alt. Az.
11 Dec ? 05:07:30 10° NE 05:11:04 18° E 05:14:37 10° SE visible
11 Dec ? 06:46:17 10° N 06:51:36 67° WNW 06:56:52 10° SSW visible
11 Dec ? 18:10:59 10° SSW 18:15:48 33° W 18:20:41 10° NNW visible
12 Dec ? 04:47:50 10° ENE 04:49:24 11° E 04:50:59 10° ESE visible
12 Dec ? 06:24:53 10° NNE 06:30:16 82° ESE 06:35:36 10° SSW visible
12 Dec ? 17:49:08 10° S 17:54:20 51° W 17:59:36 10° NNW visible
13 Dec ? 06:03:37 10° NNE 06:08:52 54° E 06:14:04 10° S visible
13 Dec ? 17:27:33 10° S 17:32:55 77° WSW 17:38:20 10° NNW visible
13 Dec ? 19:12:58 10° W 19:13:50 10° W 19:14:43 10° WNW visible
14 Dec ? 05:42:29 10° NNE 05:47:24 36° E 05:52:16 10° SSE visible
14 Dec ? 17:06:14 10° SSE 17:11:35 72° ENE 17:16:58 10° N visible
14 Dec ? 18:48:48 10° SW 18:52:10 17° W 18:55:33 10° NW visible
15 Dec ? 05:21:36 10° NE 05:25:52 24° E 05:30:05 10° SE visible
15 Dec ? 16:45:10 10° SE 16:50:18 48° ENE 16:55:28 10° N visible
15 Dec ? 18:26:11 10° SSW 18:30:34 25° W 18:34:59 10° NW visible
16 Dec ? 05:01:08 10° NE 05:04:15 15° E 05:07:20 10° SE visible
16 Dec ? 06:39:31 10° N 06:44:53 76° WNW 06:50:11 10° SSW visible
16 Dec ? 18:04:04 10° SSW 18:09:02 38° W 18:14:03 10° NNW visible
17 Dec ? 06:18:09 10° NNE 06:23:32 73° ESE 06:28:50 10° S visible
17 Dec ? 17:42:18 10° S 17:47:35 58° W 17:52:54 10° NNW visible
18 Dec ? 05:56:56 10° NNE 06:02:06 47° E 06:07:13 10° S visible
18 Dec ? 17:20:49 10° SSE 17:26:12 87° WSW 17:31:37 10° NNW visible
18 Dec ? 19:04:55 10° WSW 19:07:00 12° W 19:09:06 10° WNW visible
19 Dec ? 05:35:53 10° NNE 05:40:37 31° E 05:45:18 10° SSE visible
19 Dec ? 16:59:35 10° SSE 17:04:53 63° ENE 17:10:12 10° N visible
19 Dec ? 18:41:36 10° SW 18:45:21 19° W 18:49:07 10° NW visible
20 Dec ? 05:15:05 10° NE 05:19:02 21° E 05:22:59 10° SE visible
20 Dec ? 06:54:14 10° N 06:59:28 57° WNW 07:04:39 10° SSW visible
20 Dec ? 16:38:35 10° SE 16:43:37 42° ENE 16:48:40 10° N visible
20 Dec ? 18:19:10 10° SSW 18:23:47 29° W 18:28:24 10° NW visible
